Flag for Brazil Weather past 2 weeks in Belém, Para, Brazil

Now
84 °F

Scattered clouds.


Feels Like: 92 °F
Forecast: N/A
Wind: 10 mph from Northeast

Location: Belem Aeroporto

Current Time: Sep 21, 2014 at 5:36:57 PM

Latest Report: Sep 21, 2014 at 5:00 PM


Visibility: N/A

Pressure: 29.86 "Hg

Humidity: 74%

Dew point: 75 °F

Location of BelémLocation

Historic Weather in Belém — Graph

°F

Belém temperature yesterday

Maximum temperature yesterday: 90 °F (at 3:00 PM)
Minimum temperature yesterday: 75 °F (at 1:00 AM)
Average temperature yesterday: 79 °F

Past Weeks' High & Low Weather Summary

 TemperatureHumidityPressure
High91 °F (Sep 8, 2:00 PM)100% (Sep 7, 10:00 PM)30.01 "Hg (Sep 7, 10:00 PM)
Low36 °F (Sep 18, 4:00 PM)49% (Sep 8, 2:00 PM)29.77 "Hg (Sep 11, 3:00 PM)
Average79 °F82%29.88 "Hg
* Reported Sep 6 4:00 PM — Sep 21 4:00 PM, Belém, Weather by CustomWeather, © 2014

Note: Actual official high and low records may vary slightly from our data, if they occured in-between our weather recording intervals... More about our weather records

Advertising

Belém weather history for previous 24 hours

 ConditionsComfort  
Time TempWeatherWind HumidityBarometerVisibility
4:00 PM
Sep 21
84 °FScattered clouds.10 mph74%29.86 "HgN/A
3:00 PM86 °FScattered clouds.14 mph70%29.86 "HgN/A
2:00 PM86 °FPartly sunny.14 mph70%29.86 "HgN/A
1:00 PM84 °FPartly sunny.7 mph70%29.89 "HgN/A
12:00 PM88 °FPartly sunny.9 mph59%29.92 "HgN/A
11:00 AM84 °FScattered clouds.9 mph70%29.95 "HgN/A
10:00 AM82 °FScattered clouds.8 mph66%29.92 "HgN/A
9:00 AM81 °FPassing clouds.7 mph70%29.95 "HgN/A
8:00 AM79 °FSunny.7 mph79%29.92 "Hg10 mi
7:00 AM75 °FScattered clouds.5 mph89%29.92 "HgN/A
6:00 AM73 °FPassing clouds.2 mph94%29.89 "HgN/A
5:00 AM73 °FClear.3 mph94%29.86 "Hg10 mi
4:00 AM73 °FClear.1 mph94%29.86 "Hg10 mi
3:00 AM73 °FClear.3 mph94%29.86 "Hg10 mi
2:00 AM75 °FClear.5 mph89%29.86 "Hg10 mi
1:00 AM75 °FClear.8 mph89%29.89 "Hg10 mi
12:00 AM75 °FClear.7 mph94%29.89 "Hg10 mi
11:00 PM
Sep 20
77 °FClear.6 mph89%29.92 "Hg10 mi
10:00 PM77 °FPassing clouds.9 mph89%29.92 "HgN/A
9:00 PM79 °FPassing clouds.7 mph89%29.92 "HgN/A
8:00 PM79 °FPassing clouds.5 mph89%29.89 "HgN/A
7:00 PM81 °FPassing clouds.3 mph84%29.89 "HgN/A
6:00 PM79 °FThunderstorms. Broken clouds.6 mph79%29.86 "HgN/A
5:00 PM84 °FThunderstorms. Broken clouds.16 mph70%N/A2 mi
Weather by CustomWeather, © 2014

See weather overviewHow to use our weather pages